Regional Weather Roundup
Issued by NWS Newport/Morehead, NC

Current Version | Previous Version | Text Only | Print | Product List | Glossary Off
Versions: 1 2 3 4 5 6 7 8 9 10 11 12 13 14 15 16 17 18 19 20 21 22 23 24 25 26 27 28 29 30 31 32 33 34 35 36 37 38 39 40 41 42 43 44 45 46 47 48 49 50
000 ASUS42 KMHX 262225 RWRMHX WEATHER ROUNDUP FOR EASTERN NORTH CAROLINA NATIONAL WEATHER SERVICE NEWPORT/MOREHEAD CITY NC 600 PM EDT TUE JUL 26 2016 NOTE: "FAIR" INDICATES FEW OR NO CLOUDS BELOW 12,000 FEET WITH NO SIGNIFICANT WEATHER AND/OR OBSTRUCTIONS TO VISIBILITY NCZ015>017-031-032-045>047-102-103-262300- NORTH COAST CITY SKY/WX TMP DP RH WIND PRES REMARKS EDENTON PTSUNNY 94 74 53 W3 29.91F HX 104 ELIZABETH CITY CLOUDY 83 75 77 NE23G30 29.94R THUNDER KITTY HAWK CLOUDY 93 76 57 E3 29.91S HX 105 MANTEO N/A 89 78 70 S8 29.92S HX 103 $$ NCZ045>047-081-094-103-104-262300- CENTRAL COAST CITY SKY/WX TMP DP RH WIND PRES REMARKS FRISCO SUNNY 86 77 74 SW13 29.95S $$ NCZ095-097-098-100-101-262300- SOUTHERN COAST CITY SKY/WX TMP DP RH WIND PRES REMARKS BEAUFORT SUNNY 86 76 71 SW15 29.96R CEDAR ISLAND NOT AVBL JACKSONVILLE MOSUNNY 90 75 61 S9 29.94S HX 100 PINEY ISLAND CLEAR N/A N/A N/A SW16 29.94S WILMINGTON SUNNY 91 73 55 SW13G20 29.96S $$ NCZ011>013-027>030-043-044-078>080-089-090>093-098-262300- COASTAL PLAIN CITY SKY/WX TMP DP RH WIND PRES REMARKS AHOSKIE CLOUDY 76 75 96 CALM 29.93S FOG CLINTON MOSUNNY 95 77 56 SW7 29.94S HX 109 ELIZABETHTOWN SUNNY 95 72 47 SW6 29.95S HX 103 GOLDSBORO MOSUNNY 97 76 51 SW12 29.91S HX 110 GREENVILLE SUNNY 95 77 55 W7 29.93F HX 109 HAVELOCK SUNNY 90 72 55 SW17 29.96R KENANSVILLE NOT AVBL KINSTON MOSUNNY 95 70 43 SW12 29.93S HX 101 NEW BERN MOSUNNY 92 77 61 S9 29.95R HX 105 RICHLANDS SUNNY 94 76 55 SW9 29.95S HX 106 ROCKY MOUNT SUNNY 94 77 57 SW10 29.92S HX 108 WASHINGTON SUNNY 93 76 57 SW9 29.92S HX 106 WHITEVILLE SUNNY 92 77 59 S9 29.95S HX 105 $$ AMZ130-135-150-152-154-156-158-170-250-252-270-ANZ085-086-088-633-658-670-262300- MARINE OBSERVATIONS STATION/POSITION TIME TEMP WIND PRES WAVE SWELL AIR SEA DIR/SP/G HT/PER HT/PER (UTC) (F) (DEG/KT/KT) (MB) (FT/S) (FT/S) CHESAPEAKE LIGHT NOT AVBL 64 E VA BEACH 2150 83 81 230/ 4/ 4 1013.0 3/ 6 3/ 6 DUCK 2100 79 62 140/ 10/ 12 1012.4 2 E DUCK 2111 70 N/A 1/ 8 OREGON INLET 2100 86 85 190/ 15/ 17 1012.9 13E OREGON INLT 2200 82 N/A 3/ 6 2/ 9 HATTERAS CG 2100 85 83 220/ 11/ 15 1013.7 DIAMOND BUOY 2150 85 85 230/ 17/ 21 1014.0 5/ 6 CAPE LOOKOUT 2200 86 230/ 13/ 17 1014.4 BEAUFORT LAB 2100 86 83 210/ 11/ 18 1013.6 30 SE NEW RVR IN 2208 85 85 230/ 16/ 19 1014.7 30 SE NEW RVR IN 2125 85 N/A 4/ 5 27 SE WRIGHTSVLE 2208 85 84 220/ 16/ 21 1015.0 5 SE WRIGHTSVLE 2208 83 81 230/ 14/ 17 1015.5 225 S CAPE HAT 2150 85 85 280/ 8/ 10 1017.5 2/ 7 2/ 7 41 SE CHARLESTON 2150 85 86 210/ 16/ 17 1015.6 2/ 3 2/ 8 $$

USA.gov is the U.S. government's official web portal to all federal, state and local government web resources and services.